TimePDT,TemperatureF,Dew PointF,Humidity,Sea Level PressureIn,VisibilityMPH,Wind Direction,Wind SpeedMPH,Gust SpeedMPH,PrecipitationIn,Events,Conditions,WindDirDegrees,DateUTC
12:52 AM,64.0,19.9,18,29.83,10.0,NW,12.7,-,N/A,,Overcast,310,2013-04-17 07:52:00
1:52 AM,64.0,21.9,20,29.83,10.0,NW,13.8,20.7,N/A,,Mostly Cloudy,310,2013-04-17 08:52:00
2:52 AM,63.0,27.0,26,29.84,10.0,NNW,15.0,-,N/A,,Mostly Cloudy,340,2013-04-17 09:52:00
3:52 AM,62.1,27.0,26,29.86,10.0,NW,12.7,-,N/A,,Mostly Cloudy,310,2013-04-17 10:52:00
4:52 AM,61.0,25.0,25,29.87,10.0,NW,12.7,-,N/A,,Partly Cloudy,310,2013-04-17 11:52:00
5:52 AM,60.1,23.0,24,29.89,10.0,NW,12.7,-,N/A,,Scattered Clouds,320,2013-04-17 12:52:00
6:52 AM,61.0,21.0,21,29.92,10.0,NW,11.5,-,N/A,,Clear,310,2013-04-17 13:52:00
7:52 AM,64.0,19.9,18,29.95,10.0,NW,20.7,-,N/A,,Clear,320,2013-04-17 14:52:00
8:52 AM,66.0,19.0,17,29.97,10.0,NW,16.1,24.2,N/A,,Clear,320,2013-04-17 15:52:00
9:52 AM,68.0,19.0,15,29.99,10.0,NNW,17.3,25.3,N/A,,Clear,340,2013-04-17 16:52:00
10:52 AM,70.0,19.0,14,30.00,10.0,North,18.4,28.8,N/A,,Clear,350,2013-04-17 17:52:00
11:52 AM,72.0,17.1,12,29.99,10.0,North,-9999.0,-,N/A,,Clear,0,2013-04-17 18:52:00
12:52 PM,73.0,14.0,11,29.98,10.0,North,-9999.0,-,N/A,,Clear,0,2013-04-17 19:52:00
2:52 PM,75.9,14.0,10,29.96,-9999.0,NNW,18.4,29.9,N/A,,Unknown,330,2013-04-17 21:52:00
3:52 PM,75.9,12.9,9,29.95,-9999.0,NW,16.1,25.3,N/A,,Clear,310,2013-04-17 22:52:00
4:52 PM,75.9,10.0,8,29.95,10.0,North,9.2,19.6,N/A,,Clear,350,2013-04-17 23:52:00
5:52 PM,73.9,10.0,9,29.96,10.0,NW,17.3,-,N/A,,Clear,310,2013-04-18 00:52:00
6:52 PM,72.0,10.0,9,29.97,10.0,NNW,12.7,-,N/A,,Clear,330,2013-04-18 01:52:00
7:52 PM,69.1,9.0,10,29.99,10.0,NNW,9.2,-,N/A,,Clear,330,2013-04-18 02:52:00
8:52 PM,64.9,10.9,12,30.03,10.0,NNE,5.8,-,N/A,,Clear,30,2013-04-18 03:52:00
9:52 PM,63.0,10.9,13,30.05,10.0,NW,4.6,-,N/A,,Clear,320,2013-04-18 04:52:00
10:52 PM,61.0,10.9,14,30.06,10.0,NW,6.9,-,N/A,,Clear,320,2013-04-18 05:52:00
11:52 PM,59.0,10.0,14,30.08,10.0,NNW,10.4,-,N/A,,Clear,330,2013-04-18 06:52:00